Вернуться в каталог

STARLINK-3159

АктивенСвязьVLEO
NORAD 49415·PAYLOAD·🇺🇸 United States

Запущен Nov 13, 2021 с Cape Canaveral Space Force Station

Loading…

Ближайшие Пролёты (ближайшие 24 часа)

TLE

СвежийSource: CelesTrak SupGP

Эпоха: Sep 14, 2026, 21:12 UTC

1 49415C 21104H   26257.88381944  .00028673  00000+0  84718-3 0  2571
2 49415  53.1579  77.6343 0001193  82.0197  60.5618 15.34375169    17

Отслеживайте STARLINK-3159 в реальном времени с AllMySat

Download on the App Store